Vorticity
9 8 7 6 5 5 5 5 4 3 4 6 5 5 3 5 5 5 5 5 7 8 8 9 9 9 9 9 9 10 11 12 13 13 13 12 12 12
6 4 5 6 7 5 4 5 4 4 5 3 5 5 4 5 5 5 6 5 7 8 9 10 9 9 9 9 10 11 11 12 12 11 9 10 11 13
7 6 7 7 6 5 5 6 7 7 4 7 6 7 5 4 5 5 6 8 8 9 10 11 9 9 10 9 9 11 11 10 9 9 10 10 9 10
8 8 7 7 7 8 10 8 7 7 6 6 7 6 6 7 6 7 9 9 9 9 9 12 10 10 9 9 10 11 11 10 9 9 9 10 10 14
8 8 8 9 9 8 8 7 6 7 6 5 6 7 8 10 10 11 11 11 9 11 11 10 13 12 11 10 11 12 10 9 7 8 8 11 12 12
9 9 9 9 9 9 8 8 9 9 10 10 10 9 10 14 16 16 17 21 16 12 9 10 10 14 11 12 11 11 10 8 8 12 13 13 14 13
10 10 10 10 10 10 11 11 11 12 13 13 13 14 14 18 19 21 17 25 15 15 12 13 5 15 12 11 11 10 9 7 11 13 13 11 11 9
11 11 10 9 9 9 9 12 11 14 11 11 13 14 12 11 10 13 21 13 30 9 10 16 9 13 14 15 10 9 8 6 11 13 11 12 10 6
10 9 7 8 11 14 13 12 10 11 10 10 8 7 7 7 11 14 18 17 23 11 16 11 19 9 11 16 9 10 9 10 14 14 13 15 11 10
8 9 10 13 16 19 18 14 15 13 14 15 14 12 9 12 17 21 13 5 8 20 18 11 13 10 11 15 10 8 8 12 14 13 13 11 12 15
12 15 18 18 17 16 11 13 12 13 14 15 12 12 18 27 21 15 23 4 15 22 16 7 16 17 11 16 9 6 9 12 13 13 13 12 12 14
18 16 15 13 16 15 10 10 12 11 16 13 11 13 24 27 26 5 25 -2 23 16 12 8 16 19 18 10 11 7 11 15 14 13 13 13 12 16
16 15 14 14 12 14 13 6 12 15 16 13 13 27 13 29 10 26 18 20 20 19 14 11 11 16 14 17 9 8 12 13 13 12 13 17 11 14
15 12 13 15 13 14 16 16 8 18 12 16 23 -8 9 27 19 19 30 13 8 5 11 12 16 18 24 14 6 15 13 11 11 9 12 15 12 13
15 12 15 18 18 18 13 13 13 18 7 24 16 21 26 21 25 19 13 6 3 10 9 10 15 25 13 7 17 18 11 11 12 8 14 16 12 11
11 11 14 15 12 13 18 9 16 17 6 16 8 33 23 8 14 14 13 12 11 11 13 18 21 12 7 17 20 13 15 8 10 9 14 14 13 13
10 11 15 14 11 11 12 10 23 14 8 12 28 16 17 10 3 7 17 18 13 15 19 17 6 9 16 24 13 9 13 10 9 10 11 11 11 11
12 15 18 15 9 12 16 11 26 3 17 18 25 18 9 18 11 5 18 21 18 16 10 7 12 16 20 12 11 8 16 11 9 9 10 12 10 10
16 16 15 12 11 19 17 11 16 10 14 22 20 24 27 18 8 9 13 18 11 6 9 13 15 19 12 9 11 11 12 12 12 11 11 14 12 11
18 17 13 17 16 18 13 21 8 17 18 21 23 20 17 10 9 9 12 11 8 11 13 16 21 14 3 14 15 13 11 11 12 12 12 13 13 12
15 15 17 12 12 18 11 19 8 16 19 20 19 14 14 11 14 13 13 12 13 13 18 17 9 10 5 13 14 12 10 12 11 11 11 11 11 10
16 17 18 15 18 14 16 12 11 13 19 19 19 8 19 15 9 9 11 11 11 17 16 9 11 13 11 11 12 12 10 10 10 10 9 9 12 12
18 20 21 17 14 12 18 10 11 19 19 16 17 17 17 5 7 10 9 9 11 15 12 10 11 12 11 10 12 11 11 11 11 10 8 8 9 10
Height
3051 3048 3045 3042 3038 3035 3033 3029 3024 3020 3019 3023 3019 3016 3014 3011 3009 3005 3003 3002 3002 2999 2997 2996 2995 2993 2991 2990 2988 2987 2987 2987 2987 2986 2985 2985 2986 2987
3041 3039 3037 3033 3030 3027 3024 3021 3017 3012 3003 3010 3008 3006 3002 3001 2997 2994 2992 2989 2989 2988 2986 2984 2983 2982 2980 2979 2977 2977 2976 2976 2976 2976 2976 2975 2976 2978
3033 3029 3027 3024 3020 3018 3014 3010 3006 3003 2995 2994 2993 2992 2990 2984 2984 2981 2978 2977 2976 2975 2974 2972 2971 2970 2969 2968 2967 2966 2965 2965 2965 2966 2965 2966 2966 2968
3024 3020 3016 3013 3010 3007 3003 2998 2994 2990 2986 2980 2978 2975 2972 2971 2969 2965 2964 2961 2961 2962 2961 2961 2959 2958 2958 2957 2956 2955 2955 2955 2955 2955 2955 2955 2956 2957
3013 3010 3006 3002 2998 2994 2989 2985 2981 2977 2972 2967 2963 2960 2956 2954 2950 2948 2947 2949 2947 2947 2947 2947 2947 2947 2946 2946 2945 2945 2944 2944 2945 2944 2944 2944 2945 2945
3003 2998 2994 2990 2985 2981 2976 2972 2968 2962 2958 2952 2948 2944 2941 2939 2936 2932 2932 2932 2932 2933 2931 2934 2934 2934 2934 2934 2934 2934 2934 2934 2934 2934 2934 2934 2935 2935
2990 2984 2980 2976 2972 2968 2962 2958 2953 2947 2942 2937 2932 2928 2926 2924 2920 2920 2914 2917 2916 2917 2919 2920 2921 2922 2922 2923 2923 2924 2924 2924 2924 2924 2924 2924 2925 2926
2976 2971 2967 2962 2958 2954 2950 2945 2939 2933 2928 2923 2920 2915 2912 2910 2908 2905 2902 2901 2901 2907 2905 2908 2908 2909 2911 2912 2913 2914 2914 2914 2914 2914 2914 2915 2916 2917
2963 2958 2954 2949 2944 2939 2935 2930 2926 2922 2918 2912 2906 2905 2900 2900 2896 2891 2889 2889 2890 2892 2893 2894 2896 2898 2899 2900 2902 2903 2904 2905 2905 2905 2905 2906 2907 2908
2950 2944 2938 2933 2928 2923 2918 2913 2911 2909 2906 2902 2896 2892 2888 2885 2880 2878 2877 2878 2878 2879 2881 2883 2886 2886 2887 2888 2891 2893 2894 2895 2895 2895 2896 2897 2899 2900
2936 2931 2925 2920 2915 2911 2905 2900 2897 2896 2892 2887 2882 2878 2874 2870 2868 2865 2865 2867 2866 2867 2870 2873 2876 2875 2877 2878 2880 2884 2884 2885 2886 2887 2887 2889 2890 2892
2923 2919 2915 2910 2905 2901 2895 2889 2884 2884 2877 2873 2869 2864 2861 2858 2856 2855 2855 2856 2858 2858 2861 2864 2865 2865 2866 2868 2870 2873 2874 2876 2877 2878 2879 2881 2882 2884
2911 2907 2904 2899 2894 2890 2885 2880 2874 2870 2865 2860 2855 2851 2849 2847 2846 2844 2845 2847 2848 2849 2852 2854 2855 2856 2857 2859 2862 2864 2866 2867 2868 2870 2872 2874 2875 2878
2902 2896 2891 2887 2882 2878 2873 2869 2864 2859 2854 2849 2845 2842 2840 2838 2836 2836 2836 2839 2841 2843 2845 2846 2847 2848 2850 2852 2854 2856 2857 2859 2861 2863 2865 2867 2869 2872
2892 2886 2880 2875 2871 2866 2862 2858 2853 2849 2845 2840 2836 2833 2832 2830 2828 2828 2829 2832 2835 2837 2837 2838 2840 2841 2843 2845 2847 2848 2850 2851 2854 2856 2859 2861 2863 2866
2882 2876 2870 2864 2859 2855 2851 2847 2843 2839 2836 2831 2828 2825 2824 2824 2824 2824 2824 2826 2828 2829 2831 2832 2833 2835 2837 2838 2839 2842 2843 2845 2848 2850 2852 2855 2857 2860
2870 2865 2859 2854 2849 2845 2842 2838 2833 2830 2827 2823 2820 2818 2818 2818 2818 2819 2819 2820 2821 2823 2825 2827 2828 2829 2831 2832 2834 2836 2838 2840 2842 2843 2846 2849 2851 2853
2861 2855 2849 2844 2840 2836 2832 2828 2825 2822 2819 2816 2813 2812 2812 2812 2813 2814 2814 2814 2816 2818 2820 2822 2823 2824 2826 2828 2830 2831 2833 2835 2836 2838 2840 2843 2845 2847
2851 2846 2840 2836 2832 2828 2824 2820 2817 2815 2812 2809 2807 2806 2806 2807 2808 2810 2810 2811 2812 2814 2815 2816 2818 2819 2821 2824 2826 2827 2829 2830 2831 2833 2835 2838 2840 2841
2842 2836 2832 2828 2824 2820 2817 2814 2812 2809 2806 2804 2802 2802 2803 2803 2805 2806 2807 2808 2810 2811 2811 2813 2814 2815 2818 2820 2822 2823 2823 2825 2827 2828 2830 2832 2835 2836
2831 2827 2823 2819 2816 2814 2811 2808 2807 2804 2802 2800 2799 2799 2799 2801 2802 2803 2804 2806 2807 2807 2808 2810 2811 2812 2815 2816 2818 2819 2820 2822 2823 2825 2826 2828 2830 2831
2822 2818 2814 2812 2810 2808 2805 2804 2802 2800 2798 2797 2796 2796 2797 2798 2800 2801 2802 2803 2804 2805 2805 2807 2809 2810 2811 2813 2814 2816 2817 2818 2819 2821 2822 2822 2824 2826
2813 2809 2807 2805 2804 2802 2801 2799 2798 2797 2796 2795 2794 2795 2795 2797 2798 2799 2800 2801 2802 2803 2803 2804 2805 2806 2807 2809 2810 2812 2813 2814 2815 2816 2817 2816 2817 2817